Dewpoint
64 56 56 55 43 38 36 28 28 24 23 25 30 34 38 47 43 37 54 55 55 54 54 54 54 54 53 53 55 53 54 56 52 53 53 53 55 52 53 53 53 52 53 52 51 51 50 49 49
59 51 50 49 39 35 33 31 25 24 25 40 36 36 37 39 52 53 54 55 54 54 54 53 55 54 53 53 53 53 53 53 54 53 53 53 53 53 52 53 52 53 52 52 51 49 49 47 49
47 50 43 43 39 35 33 30 23 24 29 25 25 34 37 41 52 53 54 55 53 54 53 53 55 54 53 53 53 54 53 53 53 53 53 53 53 53 52 52 52 52 52 52 51 48 48 47 50
42 46 46 39 33 34 34 28 23 23 22 25 29 28 39 49 51 52 55 53 54 53 54 54 54 54 54 53 53 53 53 53 52 52 52 53 52 52 52 52 52 52 51 52 51 48 46 48 50
47 46 41 38 36 29 29 26 24 20 20 23 29 30 37 49 50 53 53 53 53 53 53 55 54 54 54 53 53 53 53 52 52 52 52 52 51 51 52 52 52 52 51 50 50 48 45 45 48
40 43 39 37 35 28 27 26 24 21 19 25 29 34 41 46 50 53 53 52 53 52 54 55 54 54 54 54 51 53 52 52 52 50 49 49 50 51 51 50 50 51 51 49 47 47 45 42 42
39 41 39 38 32 27 26 26 21 19 18 20 32 28 38 46 49 52 52 53 53 53 55 54 54 54 54 54 51 50 51 51 50 50 49 45 44 45 47 47 44 46 47 48 45 43 42 43 42
46 43 40 39 34 29 29 25 21 21 20 30 35 26 32 45 47 52 53 52 53 53 54 54 53 54 53 53 52 50 49 50 50 49 49 45 42 40 42 45 44 39 40 41 41 41 41 42 43
44 39 36 35 34 33 29 26 29 29 25 25 29 33 35 46 46 49 50 51 52 52 53 54 53 54 53 52 52 51 49 49 49 48 47 47 47 46 46 45 45 41 40 40 41 42 42 44 44
40 35 35 35 34 30 29 29 28 25 25 26 31 37 40 45 44 46 48 50 51 51 52 53 52 54 53 52 52 51 49 47 47 49 47 45 44 42 45 47 46 44 43 44 43 45 45 41 38
40 36 38 34 35 32 29 29 29 23 23 24 23 32 43 44 43 43 44 48 50 51 51 53 52 53 53 51 51 52 49 47 45 46 47 45 44 36 40 44 40 40 44 41 41 37 38 36 35
32 34 33 34 33 32 30 29 28 25 23 26 27 36 43 43 43 42 41 43 48 49 50 52 52 52 53 52 51 51 49 47 44 44 44 45 43 35 33 34 35 37 40 39 38 36 35 34 33
24 26 29 33 31 28 25 25 28 27 27 27 32 39 41 42 42 42 41 40 42 45 48 50 51 51 52 52 51 51 50 49 46 43 43 43 41 36 35 35 34 36 39 37 35 34 34 33 33
21 21 22 26 25 21 18 18 20 21 25 28 34 36 39 41 42 42 41 40 39 41 42 46 49 50 51 52 51 51 49 48 47 44 42 40 38 37 35 34 35 34 34 35 35 34 34 33 33
20 17 16 16 20 18 21 18 19 20 22 26 33 35 38 39 40 40 41 40 39 39 40 41 44 48 48 49 50 49 48 47 46 44 41 39 38 37 35 35 35 34 34 34 34 34 34 34 34
18 18 10 18 19 21 21 9 10 20 22 21 29 34 36 37 38 39 40 41 40 39 39 41 42 44 45 46 46 46 44 42 43 43 41 40 38 38 36 35 34 34 34 35 34 34 33 34 34
22 16 17 18 22 23 22 15 17 23 23 20 25 29 33 35 37 38 39 40 40 39 39 40 41 42 43 43 42 41 41 40 40 40 40 39 39 38 37 36 35 35 35 36 36 35 35 34 34
14 11 12 12 19 22 22 20 21 22 22 21 20 25 28 31 33 36 38 39 40 39 39 40 41 42 43 43 42 41 41 41 41 40 40 40 40 39 38 37 36 36 36 36 36 35 36 35 35
18 12 12 13 14 20 20 21 21 21 21 20 21 19 23 28 30 32 35 37 38 38 38 40 41 41 42 42 42 41 40 40 41 41 41 41 41 40 39 38 37 36 35 35 35 35 35 35 36
15 14 12 14 16 18 16 14 15 15 16 17 18 21 20 19 23 27 28 32 34 36 37 40 41 41 42 42 42 42 41 41 41 41 41 41 41 41 40 39 38 37 36 36 36 36 35 36 37
15 14 14 13 15 14 16 10 13 14 17 16 17 19 21 20 19 19 24 28 31 33 35 38 40 41 42 43 42 41 40 39 38 39 39 40 40 40 40 39 38 38 37 37 36 36 36 35 36
12 17 16 15 11 3 14 -6 -2 3 10 15 16 18 19 20 20 20 21 25 29 31 33 37 39 40 41 43 41 40 40 39 38 37 37 37 38 38 38 39 38 38 38 37 37 38 37 37 35
14 19 16 16 15 18 15 8 -2 11 3 3 13 16 18 19 20 19 20 24 28 31 31 34 37 39 40 41 41 40 39 39 39 37 36 37 37 38 39 39 39 38 38 38 38 38 38 38 37
19 16 18 25 21 7 14 11 -5 -0 0 3 9 14 17 18 19 19 20 24 28 31 31 32 35 37 38 39 40 39 39 38 37 36 36 36 37 39 41 42 42 41 40 39 39 38 38 38 38
16 14 -2 -0 15 -1 17 16 9 12 12 11 12 12 15 18 19 20 20 23 28 30 31 32 33 34 37 37 38 38 38 37 36 35 35 35 35 37 39 42 43 43 42 41 40 39 39 39 38
15 12 0 -9 10 19 20 16 14 18 19 19 19 18 16 17 18 19 21 23 27 29 31 32 32 32 35 36 37 37 37 37 36 36 35 35 36 37 40 43 44 45 44 43 42 41 40 40 39
16 12 15 13 18 16 9 13 13 15 19 16 15 17 16 16 17 19 22 24 26 29 31 32 33 33 34 34 35 36 36 36 36 36 37 37 39 41 43 44 44 44 44 43 43 42 41 41 40
18 18 14 15 -2 -3 6 14 4 10 19 21 20 14 17 18 18 19 21 24 27 29 31 32 33 33 34 35 35 35 36 36 37 38 37 39 40 42 43 44 43 42 41 41 41 41 41 41 41
16 16 18 15 14 4 8 0 24 22 22 20 21 22 15 17 19 19 20 24 27 29 31 32 33 34 34 36 36 36 36 37 38 38 39 39 40 42 42 42 41 41 41 41 40 40 40 40 40
17 15 16 11 7 18 19 11 19 21 22 21 19 17 16 19 19 20 21 24 27 29 31 33 34 34 35 36 37 37 38 38 38 38 40 41 41 42 41 41 40 40 41 41 41 39 40 39 39
Wind_Speed
12 11 3 5 1 4 0 2 1 3 1 1 2 4 5 3 3 2 1 12 16 16 13 14 14 11 9 7 5 7 8 8 6 6 8 8 10 9 8 11 11 13 13 14 15 14 13 12 13
10 3 5 3 3 1 2 2 4 3 5 13 8 4 3 1 2 6 13 9 18 17 13 14 13 11 10 10 6 7 7 7 5 7 7 7 7 8 8 10 11 10 11 12 13 14 14 12 11
4 4 2 3 3 3 3 5 6 4 11 4 4 5 3 3 2 16 5 17 14 14 15 13 13 13 11 8 9 6 8 6 5 5 6 6 7 7 8 8 9 10 11 11 13 14 13 11 12
4 4 5 2 3 3 3 7 7 7 2 3 6 3 1 2 9 8 18 18 18 16 16 15 13 13 12 10 9 7 5 7 6 5 4 5 5 6 7 7 7 8 9 10 11 12 12 11 10
5 4 2 2 2 2 3 7 11 8 5 5 4 3 1 1 5 17 21 18 20 16 15 13 14 13 12 10 10 7 8 5 5 4 3 3 3 4 4 6 7 7 8 9 9 10 11 11 9
3 3 2 4 2 2 2 7 7 5 6 6 4 6 4 1 14 18 19 19 17 20 14 13 14 13 12 11 9 8 5 7 5 4 3 2 1 2 4 4 5 7 7 7 8 8 9 10 9
3 3 3 2 4 3 5 10 7 9 6 6 13 5 3 6 13 19 18 17 16 15 16 12 11 12 12 11 9 9 8 6 6 6 4 3 1 2 0 3 5 5 5 6 6 7 7 8 9
5 3 1 2 7 8 7 8 8 10 7 5 6 4 4 11 19 16 14 17 17 16 15 15 13 11 9 8 10 9 9 8 8 7 5 5 3 3 3 3 5 5 4 5 5 6 6 7 8
3 3 1 2 4 5 9 6 3 1 9 3 6 6 2 20 21 19 12 10 12 13 15 15 15 12 12 10 10 11 11 10 9 8 7 5 2 5 6 7 6 5 5 4 5 5 6 7 8
3 3 4 3 3 5 7 4 9 5 6 6 4 1 7 24 24 24 22 22 18 19 17 16 16 15 14 10 11 9 9 7 6 6 6 3 4 6 9 8 8 6 5 6 7 8 8 8 7
3 3 4 4 2 4 6 4 7 7 9 11 13 11 19 21 23 24 23 23 26 22 17 17 17 16 16 13 13 10 10 8 8 8 8 6 5 6 5 5 7 7 6 6 6 8 7 8 7
2 4 4 2 2 3 5 2 6 14 12 8 16 20 23 26 27 26 25 24 22 21 23 19 18 18 18 15 14 15 12 11 10 11 10 8 9 7 7 7 8 8 7 7 6 6 7 8 8
2 3 3 2 3 4 2 10 10 14 21 2 11 20 26 26 26 23 22 21 21 24 22 21 19 20 18 18 15 14 15 13 15 12 12 11 10 10 8 7 6 7 6 6 7 7 8 8 9
3 3 4 4 5 4 6 7 2 8 10 8 14 24 25 27 30 20 19 23 24 23 24 21 21 21 18 19 18 17 16 17 14 13 14 13 12 10 8 8 8 8 7 7 7 8 9 10 9
3 7 9 8 5 5 3 13 19 15 5 15 17 21 23 26 19 28 29 26 26 25 22 23 22 20 21 21 20 17 18 15 16 16 14 13 13 12 9 8 8 9 6 6 7 7 7 10 10
3 3 4 3 6 3 3 17 14 4 14 17 19 21 23 26 26 25 22 24 22 22 24 21 18 19 21 19 19 18 18 16 16 15 14 15 14 13 11 11 11 9 6 6 6 7 10 11 10
4 4 5 9 9 3 8 13 9 4 11 20 19 23 24 25 23 22 22 24 23 26 24 23 21 22 23 19 18 18 17 16 15 13 14 14 14 14 13 13 13 9 8 7 5 5 6 11 14
2 5 5 8 2 7 10 28 26 19 8 18 22 23 25 26 30 26 25 24 22 23 23 23 22 21 20 14 12 10 11 13 13 15 14 14 14 14 13 13 14 9 8 9 7 7 5 8 13
5 6 10 10 5 6 19 27 33 28 15 22 23 23 26 29 25 20 23 23 23 21 23 24 23 21 18 13 15 13 17 13 14 16 17 15 15 14 13 13 12 10 11 11 7 4 7 8 4
4 8 12 10 3 5 15 29 33 27 23 26 30 28 29 24 23 21 23 23 26 27 26 23 26 22 22 17 12 7 9 11 10 13 16 17 16 15 14 15 15 13 12 12 10 8 5 3 2
5 7 6 6 10 5 12 17 10 6 15 16 25 25 26 31 29 26 24 26 25 26 27 26 26 25 22 18 11 6 3 2 5 10 11 16 16 16 16 16 15 14 12 15 13 11 11 10 2
10 3 4 6 9 6 7 14 17 11 14 14 25 27 29 29 25 23 23 26 27 28 23 24 24 24 22 22 20 21 21 20 13 12 10 11 10 14 15 16 15 15 13 15 15 11 12 8 13
5 2 3 2 3 6 2 5 13 6 13 21 24 29 30 28 28 29 26 26 25 23 27 25 24 23 21 23 22 23 22 19 12 9 12 12 11 11 12 13 13 14 14 15 14 11 12 13 11
1 2 3 3 1 6 3 6 15 7 10 7 8 20 26 26 26 24 22 21 22 21 23 24 25 24 23 24 25 26 26 22 19 18 17 16 13 13 13 12 13 14 14 15 15 13 13 14 14
2 3 6 3 1 8 2 6 21 20 19 12 15 13 22 25 25 25 23 23 22 25 26 24 25 26 24 25 25 27 27 24 24 22 20 17 15 12 13 11 12 13 14 13 12 12 13 13 12
4 5 5 5 3 6 2 10 8 5 16 14 15 18 13 21 22 25 26 25 24 26 26 25 26 24 24 25 27 24 24 23 22 21 19 19 17 15 11 11 11 11 11 10 10 11 12 12 13
4 7 2 2 0 4 7 9 18 4 16 14 12 10 12 16 22 23 21 23 24 24 27 28 26 24 25 27 24 25 24 24 24 22 17 18 15 14 13 12 11 10 10 9 8 9 10 10 10
3 7 1 1 5 7 8 9 16 15 20 25 21 13 14 12 18 19 20 22 22 22 23 23 25 29 28 26 25 24 25 23 20 17 22 19 17 14 13 12 10 8 8 7 8 8 7 8 9
5 4 3 1 5 4 7 10 7 4 14 20 23 19 12 9 14 19 21 20 21 19 22 25 25 26 25 24 23 23 24 23 19 22 20 20 16 16 15 12 10 9 9 8 8 8 7 9 9
6 12 13 8 7 6 3 19 9 5 5 13 24 18 12 6 6 11 14 15 17 22 22 25 23 25 26 24 22 24 21 21 23 24 22 18 20 16 16 12 11 10 9 8 9 10 8 10 10
Wind_Direction
330 333 65 42 44 65 18 245 244 182 163 338 41 114 131 67 143 193 238 170 149 151 164 140 157 156 145 150 134 115 110 115 109 100 80 67 67 82 45 57 46 56 48 45 43 42 48 52 49
329 345 47 82 76 138 259 241 221 215 147 121 94 85 54 131 120 124 132 190 153 155 150 153 165 145 149 163 151 144 129 117 104 82 87 82 70 55 62 50 54 53 55 49 47 44 48 57 57
338 37 51 80 113 178 218 199 180 154 160 152 105 61 138 168 156 162 209 155 151 154 147 165 160 154 158 164 157 161 145 129 106 111 95 73 65 54 67 59 52 43 43 49 44 45 49 58 51
8 19 51 99 204 225 216 176 169 154 137 98 123 97 14 206 165 183 147 151 155 156 160 170 163 157 163 169 166 162 139 146 130 121 81 80 69 51 53 54 47 49 45 41 48 47 50 59 59
40 60 86 125 253 268 212 170 165 169 162 149 162 186 202 57 119 143 151 154 159 162 164 163 170 170 164 169 172 169 169 148 142 130 98 99 80 64 49 46 42 41 42 42 39 45 47 53 54
62 81 88 203 238 217 200 175 160 175 161 150 126 146 201 83 140 157 155 163 165 164 170 169 174 174 174 174 177 177 181 170 161 151 140 142 89 66 48 39 27 28 29 33 35 34 41 45 45
120 91 193 218 187 180 211 162 184 180 171 201 150 154 259 194 172 160 162 163 168 168 167 174 176 175 181 181 185 190 190 190 190 185 182 180 193 188 282 10 12 15 16 23 25 23 24 26 26
106 98 143 246 199 215 177 169 178 167 188 114 140 208 230 196 160 151 155 169 171 173 174 177 181 171 181 190 192 199 203 204 206 209 202 215 219 245 287 316 337 357 2 7 12 10 15 12 4
107 81 223 257 191 234 168 167 174 92 146 189 187 174 230 150 147 153 158 172 181 185 185 185 183 181 183 191 204 205 210 214 216 218 221 223 244 281 290 293 307 346 354 355 357 359 1 358 350
128 145 215 223 226 227 183 184 172 169 184 219 204 192 148 150 159 170 179 187 190 194 197 195 190 188 186 192 204 207 212 219 222 224 232 247 263 281 275 276 293 310 319 330 332 333 342 345 329
173 201 213 226 225 174 188 229 179 182 218 222 215 182 159 166 173 179 188 190 194 198 196 199 198 194 190 194 201 210 212 218 224 229 232 243 269 286 289 272 279 294 297 304 316 324 324 321 323
239 245 206 217 222 167 210 181 216 202 229 225 215 169 165 177 187 191 193 196 195 196 200 200 200 196 199 199 201 208 210 217 226 230 233 233 248 255 265 267 273 272 274 285 298 298 305 305 302
235 276 245 233 212 248 240 239 235 242 239 273 163 164 178 187 195 201 199 195 195 201 203 204 196 199 202 202 206 211 215 217 226 230 234 230 235 244 245 253 261 264 272 271 282 283 293 293 300
309 284 289 265 253 252 240 257 230 250 228 192 176 185 189 193 200 199 200 202 197 202 205 204 201 199 197 202 208 213 215 223 228 234 237 231 230 240 243 252 258 266 261 268 274 281 285 291 302
316 303 315 261 233 246 201 271 240 233 192 206 202 202 201 206 199 205 206 205 201 204 202 201 202 197 198 205 210 213 217 221 226 231 231 233 227 234 242 249 258 263 270 272 270 283 281 290 300
345 31 308 291 184 215 132 277 278 245 210 219 215 215 214 218 214 213 209 208 203 202 207 202 198 196 199 199 203 209 215 218 225 229 228 233 232 233 242 249 255 258 255 254 265 277 286 288 295
15 278 260 304 208 164 193 278 278 3 205 220 216 222 222 228 227 224 216 209 205 205 207 207 198 198 200 201 202 207 212 216 223 225 227 231 233 234 235 244 255 254 256 260 264 277 268 297 304
313 306 275 267 265 222 234 256 265 270 250 241 231 227 226 229 229 222 217 213 209 207 205 205 201 203 199 195 200 214 224 231 230 229 230 234 235 237 236 246 253 250 254 263 259 269 284 281 296
288 276 283 277 268 239 248 260 270 270 251 248 242 236 232 232 233 225 218 212 210 207 204 203 201 202 183 192 204 216 224 227 234 233 235 237 239 239 235 243 250 243 244 256 260 269 280 300 314
269 294 292 288 302 231 287 279 270 261 249 236 231 234 232 233 233 230 221 211 208 210 206 201 204 197 195 196 194 188 201 228 227 234 238 238 239 241 239 242 249 247 249 254 256 247 288 281 299
283 259 284 285 320 282 316 286 289 284 241 230 230 226 225 226 229 227 221 214 209 207 203 201 200 198 194 191 169 168 165 247 236 235 243 240 236 241 240 243 246 249 240 250 246 240 238 269 286
294 239 277 314 346 304 23 295 293 284 266 238 236 226 225 222 225 226 217 214 208 210 199 198 196 195 194 187 194 202 212 224 230 230 229 240 232 241 241 243 243 245 242 246 244 232 233 224 261
253 341 315 319 317 323 289 239 269 297 268 245 237 227 224 220 219 224 219 215 209 197 198 196 195 196 192 192 197 206 218 225 228 231 242 247 248 242 246 243 244 245 241 245 244 232 225 223 239
80 297 4 53 55 277 265 213 281 244 250 281 265 234 226 220 221 223 217 208 206 195 193 193 194 200 195 196 201 207 217 224 231 239 244 249 251 254 249 249 247 248 247 244 243 240 234 235 234
95 31 307 287 270 240 184 231 253 284 274 265 297 274 233 218 216 216 212 208 203 199 197 194 196 205 199 201 204 210 218 221 229 235 239 246 254 256 257 249 247 245 244 243 239 236 236 231 233
185 181 211 282 285 298 172 246 258 252 304 283 268 275 268 225 217 215 210 208 204 201 197 195 199 206 202 205 211 211 218 222 228 233 235 243 246 250 254 253 252 249 245 240 234 237 243 233 236
171 208 212 281 171 287 254 284 289 344 357 348 310 268 248 226 214 217 210 209 206 199 199 198 200 206 204 208 211 214 217 220 227 231 231 239 243 249 253 250 248 243 236 229 224 234 243 235 240
158 148 133 347 274 271 283 280 244 314 337 335 343 301 274 259 223 213 214 212 209 204 200 198 202 207 208 207 210 215 217 219 223 223 235 235 241 242 243 242 239 240 237 228 218 233 240 240 248
155 190 145 173 195 257 305 274 227 281 328 333 329 323 297 275 245 221 218 216 210 206 202 204 205 209 210 209 211 213 218 219 218 227 232 233 235 234 234 232 230 229 229 223 225 235 238 244 260
208 205 184 200 222 228 237 266 271 277 24 24 12 2 341 312 263 255 246 225 211 214 211 210 209 211 215 211 210 216 217 217 222 227 229 226 232 230 229 227 230 233 232 223 229 242 237 243 255